Tracking 35055 objects as of 18-Aug-2026
HD Live streaming from Space Station
objects crossing your sky now

APOLLO MODEL 3


APOLLO MODEL 3 is no longer on orbit


NORAD ID: 1088
Int'l Code: 1965-009B
Launch date: February 16, 1965
Source: United States (US)
Launch site: AIR FORCE EASTERN TEST RANGE (AFETR)
Decay date: 1985-07-10
Your satellite tracking list
Your tracking list is empty




NASA's NSSDC Master Catalog

Two Line Element Set (TLE):
1 01088U 65009  B 85190.71642387  .06117589 -17622-4 +30724-3 0  9997
2 01088 031.7218 295.8597 0002569 305.8509 054.2728 16.42574391123060
Source of the keplerian elements: AFSPC